Regional Weather Roundup
Issued by NWS Little Rock, AR

Home | Current Version | Previous Version | Text Only | Print | Product List | Glossary On
Versions: 1 2 3 4 5 6 7 8 9 10 11 12 13 14 15 16 17 18 19 20 21 22 23 24 25 26 27
000
ASUS44 KLZK 211305
RWRLZK

WEATHER ROUNDUP FOR ARKANSAS
NATIONAL WEATHER SERVICE LITTLE ROCK AR
800 AM CDT MON APR 21 2014

NOTE: "FAIR" INDICATES FEW OR NO CLOUDS BELOW 12,000 FEET WITH NO
SIGNIFICANT WEATHER AND/OR OBSTRUCTIONS TO VISIBILITY.

ARZ001-003-010-029-211400-
NORTHWEST ARKANSAS

CITY           SKY/WX    TMP DP  RH WIND       PRES   REMARKS
FAYETTEVILLE   CLOUDY    61  58  90 CALM      30.05R
FORT SMITH     CLOUDY    64  61  90 CALM      30.04R FOG
HARRISON       LGT RAIN  59  57  93 CALM      30.06S
BENTONVILLE    CLOUDY    63  57  82 S3        30.06R
ROGERS         CLOUDY    61  59  93 E6        30.06R FOG
SILOAM SPGS    CLOUDY    61  54  77 S6        30.06R
HIGHFILL       LGT RAIN  61  59  93 S3        30.05R FOG
SPRINGDALE     CLOUDY    63  59  88 CALM      30.06S
$$

ARZ004-005-016-211400-
NORTH CENTRAL ARKANSAS

CITY           SKY/WX    TMP DP  RH WIND       PRES   REMARKS
BATESVILLE     CLOUDY    63  55  77 S3        30.05S
FLIPPIN        CLOUDY    61  52  72 NE5       30.06F
MTN HOME       CLOUDY    60  57  89 CALM      30.06R FOG
$$

ARZ040-041-211400-
WEST CENTRAL ARKANSAS

CITY           SKY/WX    TMP DP  RH WIND       PRES   REMARKS
MENA           CLOUDY    61 N/A N/A CALM      30.06R
MOUNT IDA      LGT RAIN  60  59  96 CALM      30.03S FOG
$$

ARZ009-017-025-026-028-211400-
NORTHEAST ARKANSAS

CITY           SKY/WX    TMP DP  RH WIND       PRES   REMARKS
CORNING        FAIR      63  57  82 NW3       30.07S
JONESBORO      CLOUDY    63  52  67 CALM      30.06R
NEWPORT        CLOUDY    61  55  80 N3        30.08R
WALNUT RIDGE   CLOUDY    61  55  82 CALM      30.07R
BLYTHEVILLE    CLOUDY    63  52  67 S8        30.07S
NW BLYTHEVILLE PTSUNNY   66  52  59 S7        30.06
$$

ARZ022-023-033-042-044-211400-
CENTRAL ARKANSAS

CITY           SKY/WX    TMP DP  RH WIND       PRES   REMARKS
LITTLE ROCK    CLOUDY    63  57  81 W3        30.06R
N LITTLE ROCK    N/A     63  58  82 CALM      30.06R
JACKSONVILLE   CLOUDY    63  57  81 CALM      30.06R
SEARCY         LGT RAIN  63  56  78 N3        30.06S
HOT SPRINGS    CLOUDY    63  58  83 CALM      30.05S
RUSSELLVILLE   PTSUNNY   63  60  90 CALM      30.04S
CLINTON        PTSUNNY   61  59  94 CALM      30.06S FOG
$$

ARZ036-211400-
EAST ARKANSAS

CITY           SKY/WX    TMP DP  RH WIND       PRES   REMARKS
WEST MEMPHIS   MOSUNNY   65  54  67 S10       30.06S
$$

ARZ050-053-066-070-073-211400-
SOUTHWEST ARKANSAS

CITY           SKY/WX    TMP DP  RH WIND       PRES   REMARKS
ARKADELPHIA    FAIR      63  61  93 CALM      30.05R
CAMDEN         PTSUNNY   61  57  88 MISG      30.04S
TEXARKANA      CLOUDY    63  60  90 CALM      30.04R FOG
EL DORADO      CLOUDY    64  57  78 S5        30.06R
DE QUEEN       CLOUDY    62  61  96 CALM      30.03R FOG
$$

ARZ056-057-069-211400-
SOUTHEAST ARKANSAS

CITY           SKY/WX    TMP DP  RH WIND       PRES   REMARKS
PINE BLUFF     CLOUDY    63  53  70 SW3       30.05R
STUTTGART      PTSUNNY   64  54  68 S7        30.05R
MONTICELLO     MOSUNNY   65  55  70 CALM      30.05S

$$





USA.gov is the U.S. government's official web portal to all federal, state and local government web resources and services.